Time,TemperatureF,DewpointF,PressureIn,WindDirection,WindDirectionDegrees,WindSpeedMPH,WindSpeedGustMPH,Humidity,HourlyPrecipIn,Conditions,Clouds,dailyrainin,SolarRadiationWatts/m^2,SoftwareType,DateUTC
2013-01-22 00:03:00,65.9,59.9,30.06,NNW,343,11.5,11.5,81,0.00,,,0.00,0.0,WeatherDisplay:10.37,2013-01-22 10:03:00,
2013-01-22 00:08:00,65.9,59.9,30.06,North,5,11.5,11.5,81,0.00,,,0.00,0.0,WeatherDisplay:10.37,2013-01-22 10:08:00,
2013-01-22 00:13:00,66.0,60.0,30.06,SE,130,11.5,11.5,81,0.00,,,0.00,0.0,WeatherDisplay:10.37,2013-01-22 10:13:00,
2013-01-22 00:18:00,66.0,60.0,30.06,NE,42,10.4,10.4,81,0.00,,,0.00,0.0,WeatherDisplay:10.37,2013-01-22 10:18:00,
2013-01-22 00:23:00,66.0,60.0,30.07,NNE,13,11.5,11.5,81,0.00,,,0.00,0.0,WeatherDisplay:10.37,2013-01-22 10:23:00,
2013-01-22 00:28:00,66.0,60.0,30.06,ENE,78,11.5,11.5,81,0.00,,,0.00,0.0,WeatherDisplay:10.37,2013-01-22 10:28:00,
2013-01-22 00:33:00,66.1,60.1,30.06,ENE,61,8.1,8.1,81,0.00,,,0.00,0.0,WeatherDisplay:10.37,2013-01-22 10:33:00,
2013-01-22 00:38:00,66.0,60.0,30.06,NNE,18,11.5,11.5,81,0.00,,,0.00,0.0,WeatherDisplay:10.37,2013-01-22 10:38:00,
2013-01-22 00:43:00,66.0,60.0,30.06,East,84,17.0,17.0,81,0.00,,,0.00,0.0,WeatherDisplay:10.37,2013-01-22 10:43:00,
2013-01-22 00:48:00,66.0,60.0,30.06,East,82,9.2,9.2,81,0.00,,,0.00,0.0,WeatherDisplay:10.37,2013-01-22 10:48:00,
2013-01-22 00:53:00,66.0,60.0,30.06,ENE,72,10.4,10.4,81,0.00,,,0.00,0.0,WeatherDisplay:10.37,2013-01-22 10:53:00,
2013-01-22 00:58:00,65.9,59.9,30.06,ENE,58,4.6,4.7,81,0.00,,,0.00,0.0,WeatherDisplay:10.37,2013-01-22 10:58:00,
2013-01-22 01:03:00,65.9,60.2,30.06,NNW,344,7.0,7.0,82,0.00,,,0.00,0.0,WeatherDisplay:10.37,2013-01-22 11:03:00,
2013-01-22 01:08:00,65.9,60.2,30.06,NNE,22,6.0,6.1,82,0.00,,,0.00,0.0,WeatherDisplay:10.37,2013-01-22 11:08:00,
2013-01-22 01:13:00,65.9,59.9,30.06,NNE,15,11.5,11.5,81,0.00,,,0.00,0.0,WeatherDisplay:10.37,2013-01-22 11:13:00,
2013-01-22 01:18:00,65.9,59.9,30.06,ENE,59,11.5,11.5,81,0.00,,,0.00,0.0,WeatherDisplay:10.37,2013-01-22 11:18:00,
2013-01-22 01:23:00,65.9,59.9,30.06,ENE,60,8.1,8.1,81,0.00,,,0.00,0.0,WeatherDisplay:10.37,2013-01-22 11:23:00,
2013-01-22 01:28:00,65.9,59.9,30.06,NE,34,5.8,5.8,81,0.00,,,0.00,0.0,WeatherDisplay:10.37,2013-01-22 11:28:00,
2013-01-22 01:33:00,65.9,59.9,30.06,ENE,71,8.0,8.0,81,0.00,,,0.00,0.0,WeatherDisplay:10.37,2013-01-22 11:33:00,
2013-01-22 01:38:00,65.9,59.9,30.06,North,5,6.9,6.9,81,0.00,,,0.00,0.0,WeatherDisplay:10.37,2013-01-22 11:38:00,
2013-01-22 01:43:00,65.9,59.9,30.06,ESE,103,4.6,4.6,81,0.00,,,0.00,0.0,WeatherDisplay:10.37,2013-01-22 11:43:00,
2013-01-22 01:48:00,65.9,59.9,30.05,NNW,337,4.6,4.6,81,0.00,,,0.00,0.0,WeatherDisplay:10.37,2013-01-22 11:48:00,
2013-01-22 01:53:00,65.9,59.9,30.05,NE,55,9.2,9.2,81,0.00,,,0.00,0.0,WeatherDisplay:10.37,2013-01-22 11:53:00,
2013-01-22 01:58:00,65.9,59.9,30.05,NE,55,6.9,6.9,81,0.00,,,0.00,0.0,WeatherDisplay:10.37,2013-01-22 11:58:00,
2013-01-22 02:03:00,65.8,59.8,30.05,ENE,60,4.6,4.6,81,0.00,,,0.00,0.0,WeatherDisplay:10.37,2013-01-22 12:03:00,
2013-01-22 02:08:00,65.8,59.8,30.05,ENE,69,9.0,9.0,81,0.00,,,0.00,0.0,WeatherDisplay:10.37,2013-01-22 12:08:00,
2013-01-22 02:13:00,65.9,59.9,30.05,ENE,69,8.1,8.1,81,0.00,,,0.00,0.0,WeatherDisplay:10.37,2013-01-22 12:13:00,
2013-01-22 02:18:00,65.9,59.9,30.05,NE,44,6.9,6.9,81,0.00,,,0.00,0.0,WeatherDisplay:10.37,2013-01-22 12:18:00,
2013-01-22 02:24:00,65.9,59.9,30.05,North,5,4.6,4.6,81,0.00,,,0.00,0.0,WeatherDisplay:10.37,2013-01-22 12:24:00,
2013-01-22 02:29:00,65.9,59.9,30.05,ENE,62,10.4,10.4,81,0.00,,,0.00,0.0,WeatherDisplay:10.37,2013-01-22 12:29:00,
2013-01-22 02:34:00,65.8,59.8,30.05,NE,40,5.0,5.0,81,0.00,,,0.00,0.0,WeatherDisplay:10.37,2013-01-22 12:34:00,
2013-01-22 02:39:00,65.8,59.8,30.05,East,81,6.0,6.0,81,0.00,,,0.00,0.0,WeatherDisplay:10.37,2013-01-22 12:39:00,
2013-01-22 02:44:00,65.8,59.8,30.05,NE,53,3.5,3.5,81,0.00,,,0.00,0.0,WeatherDisplay:10.37,2013-01-22 12:44:00,
2013-01-22 02:49:00,65.8,59.8,30.05,NE,39,4.6,4.6,81,0.00,,,0.00,0.0,WeatherDisplay:10.37,2013-01-22 12:49:00,
2013-01-22 02:54:00,65.9,59.9,30.05,ENE,58,6.9,6.9,81,0.00,,,0.00,0.0,WeatherDisplay:10.37,2013-01-22 12:54:00,
2013-01-22 02:59:00,66.0,60.0,30.05,NE,55,5.8,5.8,81,0.00,,,0.00,0.0,WeatherDisplay:10.37,2013-01-22 12:59:00,
2013-01-22 03:04:00,66.0,60.0,30.04,ENE,61,5.8,5.8,81,0.00,,,0.00,0.0,WeatherDisplay:10.37,2013-01-22 13:04:00,
2013-01-22 03:09:00,66.0,60.0,30.04,NE,42,6.9,6.9,81,0.00,,,0.00,0.0,WeatherDisplay:10.37,2013-01-22 13:09:00,
2013-01-22 03:14:00,66.1,60.1,30.04,ENE,65,10.4,10.4,81,0.00,,,0.00,0.0,WeatherDisplay:10.37,2013-01-22 13:14:00,
2013-01-22 03:19:00,66.0,60.0,30.04,ENE,65,9.2,9.2,81,0.00,,,0.00,0.0,WeatherDisplay:10.37,2013-01-22 13:19:00,
2013-01-22 03:24:00,65.9,59.9,30.04,NE,53,8.1,8.1,81,0.00,,,0.00,0.0,WeatherDisplay:10.37,2013-01-22 13:24:00,
2013-01-22 03:29:00,66.0,60.0,30.04,North,5,8.1,8.1,81,0.00,,,0.00,0.0,WeatherDisplay:10.37,2013-01-22 13:29:00,
2013-01-22 03:34:00,66.0,59.7,30.04,NE,45,5.8,5.8,80,0.00,,,0.00,0.0,WeatherDisplay:10.37,2013-01-22 13:34:00,
2013-01-22 03:39:00,65.9,59.6,30.04,ENE,68,11.5,11.5,80,0.00,,,0.00,0.0,WeatherDisplay:10.37,2013-01-22 13:39:00,
2013-01-22 03:44:00,65.8,59.5,30.04,East,84,11.0,11.0,80,0.00,,,0.00,0.0,WeatherDisplay:10.37,2013-01-22 13:44:00,
2013-01-22 03:49:00,65.7,59.4,30.04,North,355,8.1,8.1,80,0.00,,,0.00,0.0,WeatherDisplay:10.37,2013-01-22 13:49:00,
2013-01-22 03:54:00,65.7,59.4,30.04,ENE,69,6.9,6.9,80,0.00,,,0.00,0.0,WeatherDisplay:10.37,2013-01-22 13:54:00,
2013-01-22 03:59:00,65.6,59.6,30.04,NNW,340,7.0,7.0,81,0.00,,,0.00,0.0,WeatherDisplay:10.37,2013-01-22 13:59:00,
2013-01-22 04:04:00,65.6,59.6,30.04,NE,52,9.2,9.2,81,0.00,,,0.00,0.0,WeatherDisplay:10.37,2013-01-22 14:04:00,
2013-01-22 04:09:00,65.6,59.3,30.03,NE,54,6.9,6.9,80,0.00,,,0.00,0.0,WeatherDisplay:10.37,2013-01-22 14:09:00,
2013-01-22 04:14:00,65.6,59.3,30.04,NE,52,10.4,10.4,80,0.00,,,0.00,0.0,WeatherDisplay:10.37,2013-01-22 14:14:00,
2013-01-22 04:19:00,65.6,59.3,30.04,East,79,5.0,5.0,80,0.00,,,0.00,0.0,WeatherDisplay:10.37,2013-01-22 14:19:00,
2013-01-22 04:24:00,65.7,59.4,30.03,ENE,63,8.1,8.1,80,0.00,,,0.00,0.0,WeatherDisplay:10.37,2013-01-22 14:24:00,
2013-01-22 04:29:00,65.8,59.5,30.04,ENE,74,7.0,7.0,80,0.00,,,0.00,0.0,WeatherDisplay:10.37,2013-01-22 14:29:00,
2013-01-22 04:34:00,65.8,59.5,30.03,NE,40,6.0,6.0,80,0.00,,,0.00,0.0,WeatherDisplay:10.37,2013-01-22 14:34:00,
2013-01-22 04:39:00,65.8,59.5,30.03,East,92,12.7,12.7,80,0.00,,,0.00,0.0,WeatherDisplay:10.37,2013-01-22 14:39:00,
2013-01-22 04:44:00,65.8,59.5,30.03,ENE,59,11.5,11.5,80,0.00,,,0.00,0.0,WeatherDisplay:10.37,2013-01-22 14:44:00,
2013-01-22 04:49:00,65.8,59.5,30.03,NE,34,9.0,9.0,80,0.00,,,0.00,0.0,WeatherDisplay:10.37,2013-01-22 14:49:00,
2013-01-22 04:54:00,65.8,59.8,30.03,NE,52,8.1,8.1,81,0.00,,,0.00,0.0,WeatherDisplay:10.37,2013-01-22 14:54:00,
2013-01-22 04:59:00,65.9,59.9,30.03,ENE,60,5.0,5.0,81,0.00,,,0.00,0.0,WeatherDisplay:10.37,2013-01-22 14:59:00,
2013-01-22 05:04:00,65.9,59.6,30.04,NNW,332,11.5,11.5,80,0.00,,,0.00,0.0,WeatherDisplay:10.37,2013-01-22 15:04:00,
2013-01-22 05:09:00,65.9,59.6,30.04,ENE,63,8.1,8.1,80,0.00,,,0.00,0.0,WeatherDisplay:10.37,2013-01-22 15:09:00,
2013-01-22 05:14:00,65.9,59.6,30.04,NNE,19,6.9,6.9,80,0.00,,,0.00,0.0,WeatherDisplay:10.37,2013-01-22 15:14:00,
2013-01-22 05:19:00,65.9,59.6,30.04,ENE,77,4.6,4.6,80,0.00,,,0.00,0.0,WeatherDisplay:10.37,2013-01-22 15:19:00,
2013-01-22 05:24:00,65.9,59.9,30.04,NE,55,6.9,6.9,81,0.00,,,0.00,0.0,WeatherDisplay:10.37,2013-01-22 15:24:00,
2013-01-22 05:29:00,65.9,59.9,30.04,ENE,60,6.9,6.9,81,0.00,,,0.00,0.0,WeatherDisplay:10.37,2013-01-22 15:29:00,
2013-01-22 05:34:00,65.8,59.8,30.05,North,355,7.0,7.0,81,0.00,,,0.00,0.0,WeatherDisplay:10.37,2013-01-22 15:34:00,
2013-01-22 05:39:00,65.8,59.8,30.05,NE,46,9.2,9.2,81,0.00,,,0.00,0.0,WeatherDisplay:10.37,2013-01-22 15:39:00,
2013-01-22 05:44:00,65.8,60.2,30.05,NNE,17,8.1,8.1,82,0.00,,,0.00,0.0,WeatherDisplay:10.37,2013-01-22 15:44:00,
2013-01-22 05:49:00,65.7,60.1,30.05,NNE,17,9.2,9.2,82,0.00,,,0.00,0.0,WeatherDisplay:10.37,2013-01-22 15:49:00,
2013-01-22 05:54:00,65.7,60.1,30.05,NE,34,6.9,6.9,82,0.00,,,0.00,0.0,WeatherDisplay:10.37,2013-01-22 15:54:00,
2013-01-22 05:59:00,65.7,60.1,30.05,NNE,17,9.2,9.2,82,0.00,,,0.00,0.0,WeatherDisplay:10.37,2013-01-22 15:59:00,
2013-01-22 06:04:00,65.7,60.1,30.05,ENE,59,6.9,6.9,82,0.00,,,0.00,0.0,WeatherDisplay:10.37,2013-01-22 16:04:00,
2013-01-22 06:09:00,65.6,60.0,30.05,East,82,6.9,6.9,82,0.00,,,0.00,0.0,WeatherDisplay:10.37,2013-01-22 16:09:00,
2013-01-22 06:14:00,65.6,60.0,30.05,NNW,348,5.8,5.8,82,0.00,,,0.00,0.0,WeatherDisplay:10.37,2013-01-22 16:14:00,
2013-01-22 06:19:00,65.5,59.9,30.05,NE,51,8.1,8.1,82,0.00,,,0.00,0.0,WeatherDisplay:10.37,2013-01-22 16:19:00,
2013-01-22 06:24:00,65.5,59.9,30.06,ENE,57,9.2,9.2,82,0.00,,,0.00,0.0,WeatherDisplay:10.37,2013-01-22 16:24:00,
2013-01-22 06:29:00,65.5,59.9,30.06,NNE,32,4.6,4.6,82,0.00,,,0.00,0.0,WeatherDisplay:10.37,2013-01-22 16:29:00,
2013-01-22 06:34:00,65.5,59.9,30.06,ENE,57,10.4,10.4,82,0.00,,,0.00,0.0,WeatherDisplay:10.37,2013-01-22 16:34:00,
2013-01-22 06:39:00,65.6,60.0,30.06,East,81,6.9,6.9,82,0.00,,,0.00,0.0,WeatherDisplay:10.37,2013-01-22 16:39:00,
2013-01-22 06:44:00,65.5,59.9,30.06,NNE,33,8.1,8.1,82,0.00,,,0.00,0.0,WeatherDisplay:10.37,2013-01-22 16:44:00,
2013-01-22 06:49:00,65.5,59.9,30.06,NE,34,8.1,8.1,82,0.00,,,0.00,0.0,WeatherDisplay:10.37,2013-01-22 16:49:00,
2013-01-22 06:54:00,65.6,60.0,30.06,NNE,19,9.2,9.2,82,0.00,,,0.00,0.0,WeatherDisplay:10.37,2013-01-22 16:54:00,
2013-01-22 06:59:00,65.6,59.6,30.06,NE,43,5.8,5.8,81,0.00,,,0.00,0.0,WeatherDisplay:10.37,2013-01-22 16:59:00,
2013-01-22 07:04:00,65.6,59.6,30.06,NE,44,5.8,5.8,81,0.00,,,0.00,0.0,WeatherDisplay:10.37,2013-01-22 17:04:00,
2013-01-22 07:09:00,65.6,59.6,30.06,NE,55,9.2,9.2,81,0.00,,,0.00,5.0,WeatherDisplay:10.37,2013-01-22 17:09:00,
2013-01-22 07:14:00,65.5,59.5,30.06,NE,40,6.9,6.9,81,0.00,CLR,,0.00,7.0,WeatherDisplay:10.37,2013-01-22 17:14:00,
2013-01-22 07:19:00,65.5,59.2,30.06,NNE,28,8.1,8.1,80,0.00,SCT,,0.00,9.0,WeatherDisplay:10.37,2013-01-22 17:19:00,
2013-01-22 07:24:00,65.6,59.3,30.06,ENE,68,9.2,9.2,80,0.00,SCT,,0.00,14.0,WeatherDisplay:10.37,2013-01-22 17:24:00,
2013-01-22 07:29:00,65.6,59.3,30.06,NE,42,6.9,6.9,80,0.00,BKN,,0.00,18.0,WeatherDisplay:10.37,2013-01-22 17:29:00,
2013-01-22 07:34:00,65.7,59.4,30.07,ENE,59,4.6,4.6,80,0.00,BKN,,0.00,19.0,WeatherDisplay:10.37,2013-01-22 17:34:00,
2013-01-22 07:39:00,65.9,59.6,30.07,North,5,10.4,10.4,80,0.00,BKN,,0.00,23.0,WeatherDisplay:10.37,2013-01-22 17:39:00,
2013-01-22 07:44:00,66.1,59.7,30.07,ENE,57,8.1,8.1,80,0.00,BKN,,0.00,35.0,WeatherDisplay:10.37,2013-01-22 17:44:00,
2013-01-22 07:49:00,66.3,59.9,30.07,ENE,78,8.1,8.1,80,0.00,SCT,,0.00,46.0,WeatherDisplay:10.37,2013-01-22 17:49:00,
2013-01-22 07:54:00,66.5,60.1,30.07,ENE,67,6.9,6.9,80,0.00,SCT,,0.00,60.0,WeatherDisplay:10.37,2013-01-22 17:54:00,
2013-01-22 07:59:00,66.7,60.0,30.07,ENE,59,7.0,7.0,79,0.00,FEW,,0.00,77.0,WeatherDisplay:10.37,2013-01-22 17:59:00,
2013-01-22 08:04:00,66.9,60.2,30.07,NE,38,8.1,8.1,79,0.00,CLR,,0.00,97.0,WeatherDisplay:10.37,2013-01-22 18:04:00,
2013-01-22 08:09:00,67.1,60.4,30.08,NNE,17,4.0,4.0,79,0.00,CLR,,0.00,116.0,WeatherDisplay:10.37,2013-01-22 18:09:00,
2013-01-22 08:14:00,67.4,60.3,30.08,NE,46,8.1,8.1,78,0.00,CLR,,0.00,139.0,WeatherDisplay:10.37,2013-01-22 18:14:00,
2013-01-22 08:19:00,67.6,60.5,30.08,NNW,344,5.0,5.0,78,0.00,CLR,,0.00,158.0,WeatherDisplay:10.37,2013-01-22 18:19:00,
2013-01-22 08:24:00,67.8,60.7,30.08,North,355,4.6,4.6,78,0.00,CLR,,0.00,195.0,WeatherDisplay:10.37,2013-01-22 18:24:00,
2013-01-22 08:29:00,68.2,60.7,30.08,NNE,19,4.6,4.6,77,0.00,CLR,,0.00,202.0,WeatherDisplay:10.37,2013-01-22 18:29:00,
2013-01-22 08:34:00,68.5,61.0,30.09,NNE,19,3.5,3.5,77,0.00,CLR,,0.00,230.0,WeatherDisplay:10.37,2013-01-22 18:34:00,
2013-01-22 08:39:00,68.8,61.3,30.09,NE,43,3.5,3.5,77,0.00,CLR,,0.00,260.0,WeatherDisplay:10.37,2013-01-22 18:39:00,
2013-01-22 08:44:00,69.1,61.2,30.09,North,5,9.2,9.2,76,0.00,CLR,,0.00,283.0,WeatherDisplay:10.37,2013-01-22 18:44:00,
2013-01-22 08:49:00,69.4,61.5,30.09,ENE,74,6.9,6.9,76,0.00,CLR,,0.00,355.0,WeatherDisplay:10.37,2013-01-22 18:49:00,
2013-01-22 08:54:00,69.7,61.4,30.09,ENE,66,10.4,10.4,75,0.00,CLR,,0.00,396.0,WeatherDisplay:10.37,2013-01-22 18:54:00,
2013-01-22 08:59:00,69.9,61.6,30.09,NE,53,8.1,8.1,75,0.00,CLR,,0.00,380.0,WeatherDisplay:10.37,2013-01-22 18:59:00,
2013-01-22 09:04:00,70.1,61.8,30.09,ENE,69,7.0,7.0,75,0.00,BKN,,0.00,109.0,WeatherDisplay:10.37,2013-01-22 19:04:00,
2013-01-22 09:09:00,70.2,61.9,30.09,ENE,66,6.9,6.9,75,0.00,CLR,,0.00,432.0,WeatherDisplay:10.37,2013-01-22 19:09:00,
2013-01-22 09:14:00,70.4,62.1,30.09,ENE,59,4.6,4.6,75,0.00,CLR,,0.00,202.0,WeatherDisplay:10.37,2013-01-22 19:14:00,
2013-01-22 09:19:00,70.4,62.1,30.10,ENE,59,4.6,4.6,75,0.00,BKN,,0.00,162.0,WeatherDisplay:10.37,2013-01-22 19:19:00,
2013-01-22 09:24:00,70.4,62.1,30.10,ENE,65,6.9,6.9,75,0.00,BKN,,0.00,127.0,WeatherDisplay:10.37,2013-01-22 19:24:00,
2013-01-22 09:29:00,70.2,62.3,30.10,NNE,17,9.2,9.2,76,0.00,BKN,,0.00,167.0,WeatherDisplay:10.37,2013-01-22 19:29:00,
2013-01-22 09:34:00,70.1,62.6,30.10,ESE,111,4.0,4.0,77,0.00,FEW,,0.00,248.0,WeatherDisplay:10.37,2013-01-22 19:34:00,
2013-01-22 09:39:00,70.0,62.5,30.10,NE,40,4.6,4.6,77,0.00,SCT,,0.00,225.0,WeatherDisplay:10.37,2013-01-22 19:39:00,
2013-01-22 09:44:00,70.0,62.5,30.10,East,96,8.1,8.1,77,0.00,BKN,,0.00,230.0,WeatherDisplay:10.37,2013-01-22 19:44:00,
2013-01-22 09:49:00,70.0,62.8,30.10,ENE,57,7.0,7.0,78,0.00,BKN,,0.00,192.0,WeatherDisplay:10.37,2013-01-22 19:49:00,
2013-01-22 09:54:00,70.1,62.9,30.10,NE,47,4.6,4.6,78,0.00,SCT,,0.00,260.0,WeatherDisplay:10.37,2013-01-22 19:54:00,
2013-01-22 09:59:00,70.2,63.0,30.10,ENE,65,6.9,6.9,78,0.00,BKN,,0.00,197.0,WeatherDisplay:10.37,2013-01-22 19:59:00,
2013-01-22 10:04:00,70.3,62.7,30.10,NE,35,9.2,9.2,77,0.00,BKN,,0.00,179.0,WeatherDisplay:10.37,2013-01-22 20:04:00,
2013-01-22 10:09:00,70.1,62.9,30.11,East,82,3.5,3.5,78,0.00,BKN,,0.00,169.0,WeatherDisplay:10.37,2013-01-22 20:09:00,
2013-01-22 10:14:00,70.2,63.4,30.10,ENE,74,6.9,6.9,79,0.00,SCT,,0.00,287.0,WeatherDisplay:10.37,2013-01-22 20:14:00,
2013-01-22 10:19:00,70.3,63.8,30.10,ENE,68,8.1,8.1,80,0.00,SCT,,0.00,272.0,WeatherDisplay:10.37,2013-01-22 20:19:00,
2013-01-22 10:24:00,70.8,64.3,30.10,North,5,4.6,4.6,80,0.00,CLR,,0.00,448.0,WeatherDisplay:10.37,2013-01-22 20:24:00,
2013-01-22 10:29:00,71.3,64.1,30.10,ENE,66,4.6,4.6,78,0.00,OVC,,0.00,137.0,WeatherDisplay:10.37,2013-01-22 20:29:00,
2013-01-22 10:34:00,71.2,63.2,30.10,East,86,8.1,8.1,76,0.00,BKN,,0.00,265.0,WeatherDisplay:10.37,2013-01-22 20:34:00,
2013-01-22 10:39:00,71.4,63.4,30.10,NE,55,9.2,9.2,76,0.00,BKN,,0.00,735.0,WeatherDisplay:10.37,2013-01-22 20:39:00,
2013-01-22 10:44:00,71.8,63.4,30.09,NE,56,4.6,4.6,75,0.00,SCT,,0.00,352.0,WeatherDisplay:10.37,2013-01-22 20:44:00,
2013-01-22 10:49:00,72.1,63.4,30.09,NE,53,7.0,7.0,74,0.00,BKN,,0.00,211.0,WeatherDisplay:10.37,2013-01-22 20:49:00,
2013-01-22 10:54:00,72.1,63.7,30.09,ENE,63,5.8,5.8,75,0.00,BKN,,0.00,751.0,WeatherDisplay:10.37,2013-01-22 20:54:00,
2013-01-22 10:59:00,72.2,63.4,30.09,East,96,15.0,15.0,74,0.00,BKN,,0.00,221.0,WeatherDisplay:10.37,2013-01-22 20:59:00,
2013-01-22 11:04:00,72.1,63.0,30.09,East,99,6.0,6.0,73,0.00,SCT,,0.00,311.0,WeatherDisplay:10.37,2013-01-22 21:04:00,
2013-01-22 11:09:00,72.0,62.9,30.08,NE,51,8.1,8.1,73,0.00,BKN,,0.00,260.0,WeatherDisplay:10.37,2013-01-22 21:09:00,
2013-01-22 11:14:00,71.9,62.4,30.08,East,82,11.5,11.5,72,0.00,BKN,,0.00,315.0,WeatherDisplay:10.37,2013-01-22 21:14:00,
2013-01-22 11:19:00,71.8,62.3,30.08,East,95,6.9,6.9,72,0.00,BKN,,0.00,316.0,WeatherDisplay:10.37,2013-01-22 21:19:00,
2013-01-22 11:24:00,72.1,62.2,30.08,East,80,9.2,9.2,71,0.00,CLR,,0.00,858.0,WeatherDisplay:10.37,2013-01-22 21:24:00,
2013-01-22 11:29:00,72.6,62.3,30.08,ENE,71,12.7,12.7,70,0.00,CLR,,0.00,795.0,WeatherDisplay:10.37,2013-01-22 21:29:00,
2013-01-22 11:32:00,72.9,62.5,30.08,NE,51,9.2,9.2,70,0.00,CLR,,0.00,846.0,WeatherDisplay:10.37,2013-01-22 21:32:00,
2013-01-22 11:37:00,73.1,62.7,30.08,ESE,117,6.9,6.9,70,0.00,SCT,,0.00,397.0,WeatherDisplay:10.37,2013-01-22 21:37:00,
2013-01-22 11:42:00,73.2,62.8,30.07,ENE,67,9.2,9.2,70,0.00,SCT,,0.00,367.0,WeatherDisplay:10.37,2013-01-22 21:42:00,
2013-01-22 11:47:00,73.1,63.1,30.07,ESE,103,8.1,8.1,71,0.00,SCT,,0.00,422.0,WeatherDisplay:10.37,2013-01-22 21:47:00,
2013-01-22 11:52:00,73.4,63.4,30.07,ENE,73,9.2,9.2,71,0.00,CLR,,0.00,844.0,WeatherDisplay:10.37,2013-01-22 21:52:00,
2013-01-22 11:57:00,73.7,62.9,30.06,NE,37,5.8,5.8,69,0.00,CLR,,0.00,865.0,WeatherDisplay:10.37,2013-01-22 21:57:00,
2013-01-22 12:02:00,74.1,62.9,30.06,NNE,25,10.4,10.4,68,0.00,CLR,,0.00,905.0,WeatherDisplay:10.37,2013-01-22 22:02:00,
2013-01-22 12:07:00,74.4,62.7,30.06,East,101,6.9,6.9,67,0.00,CLR,,0.00,867.0,WeatherDisplay:10.37,2013-01-22 22:07:00,
2013-01-22 12:12:00,74.6,62.9,30.06,SE,125,11.0,11.0,67,0.00,CLR,,0.00,882.0,WeatherDisplay:10.37,2013-01-22 22:12:00,
2013-01-22 12:17:00,74.8,63.1,30.06,East,87,10.4,10.4,67,0.00,CLR,,0.00,872.0,WeatherDisplay:10.37,2013-01-22 22:17:00,
2013-01-22 12:22:00,75.2,63.5,30.05,ENE,58,11.5,11.5,67,0.00,CLR,,0.00,935.0,WeatherDisplay:10.37,2013-01-22 22:22:00,
2013-01-22 12:27:00,75.2,63.1,30.05,NNE,33,11.5,11.5,66,0.00,CLR,,0.00,844.0,WeatherDisplay:10.37,2013-01-22 22:27:00,
2013-01-22 12:32:00,75.1,63.0,30.04,East,80,8.0,8.0,66,0.00,CLR,,0.00,867.0,WeatherDisplay:10.37,2013-01-22 22:32:00,
2013-01-22 12:37:00,75.2,62.6,30.04,ENE,59,9.2,9.2,65,0.00,CLR,,0.00,881.0,WeatherDisplay:10.37,2013-01-22 22:37:00,
2013-01-22 12:42:00,75.4,62.4,30.04,ENE,78,8.1,8.1,64,0.00,CLR,,0.00,796.0,WeatherDisplay:10.37,2013-01-22 22:42:00,
2013-01-22 12:47:00,75.5,62.5,30.04,NE,35,9.2,9.2,64,0.00,CLR,,0.00,872.0,WeatherDisplay:10.37,2013-01-22 22:47:00,
2013-01-22 12:52:00,75.3,62.7,30.04,ENE,76,10.4,10.4,65,0.00,OVC,,0.00,807.0,WeatherDisplay:10.37,2013-01-22 22:52:00,
2013-01-22 12:57:00,75.2,62.2,30.04,ENE,68,11.5,11.5,64,0.00,CLR,,0.00,847.0,WeatherDisplay:10.37,2013-01-22 22:57:00,
2013-01-22 13:02:00,75.3,62.3,30.03,North,5,12.7,12.7,64,0.00,CLR,,0.00,745.0,WeatherDisplay:10.37,2013-01-22 23:02:00,
2013-01-22 13:08:00,75.4,61.0,30.03,NE,43,12.7,12.7,61,0.00,CLR,,0.00,775.0,WeatherDisplay:10.37,2013-01-22 23:08:00,
2013-01-22 13:13:00,75.7,61.3,30.03,East,92,10.0,10.0,61,0.00,CLR,,0.00,773.0,WeatherDisplay:10.37,2013-01-22 23:13:00,
2013-01-22 13:18:00,75.8,61.8,30.02,ENE,71,8.1,8.1,62,0.00,CLR,,0.00,770.0,WeatherDisplay:10.37,2013-01-22 23:18:00,
2013-01-22 13:23:00,75.9,61.9,30.03,SE,132,9.2,9.2,62,0.00,CLR,,0.00,761.0,WeatherDisplay:10.37,2013-01-22 23:23:00,
2013-01-22 13:28:00,76.1,61.7,30.03,NNE,20,11.5,11.5,61,0.00,CLR,,0.00,761.0,WeatherDisplay:10.37,2013-01-22 23:28:00,
2013-01-22 13:33:00,76.4,62.0,30.02,NE,35,7.0,7.0,61,0.00,CLR,,0.00,751.0,WeatherDisplay:10.37,2013-01-22 23:33:00,
2013-01-22 13:38:00,76.6,62.1,30.02,ESE,118,9.2,9.2,61,0.00,CLR,,0.00,747.0,WeatherDisplay:10.37,2013-01-22 23:38:00,
2013-01-22 13:43:00,76.6,61.2,30.02,East,92,6.9,6.9,59,0.00,CLR,,0.00,744.0,WeatherDisplay:10.37,2013-01-22 23:43:00,
2013-01-22 13:48:00,76.7,60.8,30.01,ESE,105,9.2,9.2,58,0.00,CLR,,0.00,740.0,WeatherDisplay:10.37,2013-01-22 23:48:00,
2013-01-22 13:53:00,76.6,60.7,30.01,ENE,76,9.2,9.2,58,0.00,CLR,,0.00,735.0,WeatherDisplay:10.37,2013-01-22 23:53:00,
2013-01-22 13:58:00,76.5,60.1,30.01,NE,50,9.2,9.2,57,0.00,CLR,,0.00,726.0,WeatherDisplay:10.37,2013-01-22 23:58:00,
2013-01-22 14:03:00,76.7,60.3,30.01,NE,49,11.5,11.5,57,0.00,CLR,,0.00,719.0,WeatherDisplay:10.37,2013-01-23 00:03:00,
2013-01-22 14:08:00,76.8,59.4,30.01,ENE,61,12.7,12.7,55,0.00,CLR,,0.00,712.0,WeatherDisplay:10.37,2013-01-23 00:08:00,
2013-01-22 14:13:00,76.9,59.5,30.01,ENE,57,9.2,9.2,55,0.00,CLR,,0.00,708.0,WeatherDisplay:10.37,2013-01-23 00:13:00,
2013-01-22 14:18:00,76.8,59.9,30.00,East,86,5.0,5.0,56,0.00,CLR,,0.00,698.0,WeatherDisplay:10.37,2013-01-23 00:18:00,
2013-01-22 14:23:00,76.8,58.9,30.00,ESE,117,11.5,11.5,54,0.00,CLR,,0.00,687.0,WeatherDisplay:10.37,2013-01-23 00:23:00,
2013-01-22 14:28:00,77.0,60.1,30.00,South,184,8.1,8.1,56,0.00,CLR,,0.00,673.0,WeatherDisplay:10.37,2013-01-23 00:28:00,
2013-01-22 14:33:00,76.9,60.0,30.00,ENE,76,8.1,8.1,56,0.00,CLR,,0.00,668.0,WeatherDisplay:10.37,2013-01-23 00:33:00,
2013-01-22 14:38:00,76.7,60.8,30.00,NE,42,9.2,9.2,58,0.00,CLR,,0.00,659.0,WeatherDisplay:10.37,2013-01-23 00:38:00,
2013-01-22 14:43:00,76.6,59.7,30.00,NNE,16,11.5,11.5,56,0.00,CLR,,0.00,642.0,WeatherDisplay:10.37,2013-01-23 00:43:00,
2013-01-22 14:48:00,76.6,59.7,30.00,ENE,69,8.1,8.1,56,0.00,CLR,,0.00,633.0,WeatherDisplay:10.37,2013-01-23 00:48:00,
2013-01-22 14:53:00,76.8,60.4,30.00,ENE,60,6.9,6.9,57,0.00,CLR,,0.00,628.0,WeatherDisplay:10.37,2013-01-23 00:53:00,
2013-01-22 14:58:00,76.8,59.4,30.00,NE,56,8.1,8.1,55,0.00,CLR,,0.00,615.0,WeatherDisplay:10.37,2013-01-23 00:58:00,
2013-01-22 15:03:00,76.8,59.4,30.00,East,87,9.2,9.2,55,0.00,CLR,,0.00,605.0,WeatherDisplay:10.37,2013-01-23 01:03:00,
2013-01-22 15:08:00,76.7,60.3,30.00,East,81,8.1,8.1,57,0.00,CLR,,0.00,587.0,WeatherDisplay:10.37,2013-01-23 01:08:00,
2013-01-22 15:13:00,76.9,60.5,30.00,ENE,73,10.4,10.4,57,0.00,CLR,,0.00,578.0,WeatherDisplay:10.37,2013-01-23 01:13:00,
2013-01-22 15:18:00,76.8,60.4,30.00,NE,44,6.9,6.9,57,0.00,CLR,,0.00,564.0,WeatherDisplay:10.37,2013-01-23 01:18:00,
2013-01-22 15:23:00,76.8,60.4,30.00,East,100,6.9,6.9,57,0.00,CLR,,0.00,547.0,WeatherDisplay:10.37,2013-01-23 01:23:00,
2013-01-22 15:28:00,76.6,60.7,30.00,ESE,118,12.7,12.7,58,0.00,CLR,,0.00,536.0,WeatherDisplay:10.37,2013-01-23 01:28:00,
2013-01-22 15:33:00,76.3,60.9,30.00,North,360,10.4,10.4,59,0.00,CLR,,0.00,522.0,WeatherDisplay:10.37,2013-01-23 01:33:00,
2013-01-22 15:38:00,76.2,60.8,30.00,ENE,67,6.9,6.9,59,0.00,CLR,,0.00,504.0,WeatherDisplay:10.37,2013-01-23 01:38:00,
2013-01-22 15:43:00,76.1,60.7,29.99,ENE,61,6.9,6.9,59,0.00,CLR,,0.00,494.0,WeatherDisplay:10.37,2013-01-23 01:43:00,
2013-01-22 15:48:00,75.9,60.5,30.00,East,92,10.4,10.4,59,0.00,CLR,,0.00,475.0,WeatherDisplay:10.37,2013-01-23 01:48:00,
2013-01-22 15:53:00,75.7,60.4,30.00,ENE,57,9.2,9.2,59,0.00,CLR,,0.00,461.0,WeatherDisplay:10.37,2013-01-23 01:53:00,
2013-01-22 15:58:00,75.8,60.4,29.99,East,96,6.9,6.9,59,0.00,CLR,,0.00,439.0,WeatherDisplay:10.37,2013-01-23 01:58:00,
2013-01-22 16:03:00,75.5,60.2,29.99,ENE,64,8.1,8.1,59,0.00,CLR,,0.00,432.0,WeatherDisplay:10.37,2013-01-23 02:03:00,
2013-01-22 16:08:00,75.2,59.4,29.99,NE,46,10.4,10.4,58,0.00,CLR,,0.00,415.0,WeatherDisplay:10.37,2013-01-23 02:08:00,
2013-01-22 16:13:00,75.1,59.3,29.99,ENE,66,11.5,11.5,58,0.00,CLR,,0.00,401.0,WeatherDisplay:10.37,2013-01-23 02:13:00,
2013-01-22 16:18:00,74.9,58.6,30.00,ENE,74,11.5,11.5,57,0.00,CLR,,0.00,380.0,WeatherDisplay:10.37,2013-01-23 02:18:00,
2013-01-22 16:23:00,74.4,57.2,30.00,NE,53,10.4,10.4,55,0.00,CLR,,0.00,366.0,WeatherDisplay:10.37,2013-01-23 02:23:00,
2013-01-22 16:28:00,74.1,57.9,29.99,ENE,74,9.2,9.2,57,0.00,CLR,,0.00,348.0,WeatherDisplay:10.37,2013-01-23 02:28:00,
2013-01-22 16:33:00,73.9,57.7,30.00,North,5,9.2,9.2,57,0.00,CLR,,0.00,332.0,WeatherDisplay:10.37,2013-01-23 02:33:00,
2013-01-22 16:38:00,73.7,58.5,30.00,ENE,60,11.5,11.5,59,0.00,CLR,,0.00,313.0,WeatherDisplay:10.37,2013-01-23 02:38:00,
2013-01-22 16:43:00,73.7,58.5,30.00,East,88,9.2,9.2,59,0.00,CLR,,0.00,294.0,WeatherDisplay:10.37,2013-01-23 02:43:00,
2013-01-22 16:48:00,73.3,58.1,30.00,ENE,72,11.5,11.5,59,0.00,CLR,,0.00,272.0,WeatherDisplay:10.37,2013-01-23 02:48:00,
2013-01-22 16:53:00,73.0,58.8,30.00,North,9,7.0,7.0,61,0.00,CLR,,0.00,253.0,WeatherDisplay:10.37,2013-01-23 02:53:00,
2013-01-22 16:58:00,72.9,59.1,30.00,ENE,63,4.6,4.6,62,0.00,CLR,,0.00,227.0,WeatherDisplay:10.37,2013-01-23 02:58:00,
2013-01-22 17:03:00,72.8,59.0,30.00,ENE,64,10.4,10.4,62,0.00,CLR,,0.00,207.0,WeatherDisplay:10.37,2013-01-23 03:03:00,
2013-01-22 17:08:00,72.5,59.2,30.00,ENE,76,9.0,9.0,63,0.00,CLR,,0.00,181.0,WeatherDisplay:10.37,2013-01-23 03:08:00,
2013-01-22 17:13:00,72.1,58.8,30.00,NNE,29,8.1,8.1,63,0.00,CLR,,0.00,160.0,WeatherDisplay:10.37,2013-01-23 03:13:00,
2013-01-22 17:18:00,71.7,59.3,30.00,NNE,24,9.2,9.2,65,0.00,CLR,,0.00,141.0,WeatherDisplay:10.37,2013-01-23 03:18:00,
2013-01-22 17:23:00,71.3,58.9,30.00,ENE,69,11.5,11.5,65,0.00,CLR,,0.00,120.0,WeatherDisplay:10.37,2013-01-23 03:23:00,
2013-01-22 17:28:00,71.0,59.1,30.00,NE,34,11.5,11.5,66,0.00,CLR,,0.00,100.0,WeatherDisplay:10.37,2013-01-23 03:28:00,
2013-01-22 17:33:00,70.8,59.3,30.00,East,82,12.0,12.0,67,0.00,CLR,,0.00,79.0,WeatherDisplay:10.37,2013-01-23 03:33:00,
2013-01-22 17:38:00,70.5,59.0,30.00,ENE,68,11.5,11.5,67,0.00,CLR,,0.00,63.0,WeatherDisplay:10.37,2013-01-23 03:38:00,
2013-01-22 17:43:00,70.2,59.1,30.00,NE,40,6.9,6.9,68,0.00,CLR,,0.00,47.0,WeatherDisplay:10.37,2013-01-23 03:43:00,
2013-01-22 17:48:00,70.0,59.4,30.00,ENE,76,8.0,8.0,69,0.00,SCT,,0.00,33.0,WeatherDisplay:10.37,2013-01-23 03:48:00,
2013-01-22 17:53:00,69.8,59.6,30.00,ENE,69,9.2,9.2,70,0.00,SCT,,0.00,25.0,WeatherDisplay:10.37,2013-01-23 03:53:00,
2013-01-22 17:58:00,69.6,59.4,30.00,ENE,78,9.2,9.2,70,0.00,SCT,,0.00,21.0,WeatherDisplay:10.37,2013-01-23 03:58:00,
2013-01-22 18:03:00,69.3,59.5,30.00,ENE,68,8.1,8.1,71,0.00,FEW,,0.00,16.0,WeatherDisplay:10.37,2013-01-23 04:03:00,
2013-01-22 18:08:00,69.0,59.6,30.00,NE,47,8.1,8.1,72,0.00,CLR,,0.00,12.0,WeatherDisplay:10.37,2013-01-23 04:08:00,
2013-01-22 18:13:00,68.7,59.3,30.00,ENE,71,9.2,9.2,72,0.00,CLR,,0.00,9.0,WeatherDisplay:10.37,2013-01-23 04:13:00,
2013-01-22 18:18:00,68.4,59.4,30.01,NNE,17,6.9,6.9,73,0.00,,,0.00,5.0,WeatherDisplay:10.37,2013-01-23 04:18:00,
2013-01-22 18:23:00,68.2,59.2,30.01,ENE,67,9.2,9.2,73,0.00,,,0.00,0.0,WeatherDisplay:10.37,2013-01-23 04:23:00,
2013-01-22 18:28:00,68.0,59.4,30.01,ENE,68,9.2,9.2,74,0.00,,,0.00,0.0,WeatherDisplay:10.37,2013-01-23 04:28:00,
2013-01-22 18:33:00,67.9,59.3,30.01,ENE,57,9.2,9.2,74,0.00,,,0.00,0.0,WeatherDisplay:10.37,2013-01-23 04:33:00,
2013-01-22 18:38:00,67.7,59.1,30.01,NE,51,6.0,6.0,74,0.00,,,0.00,0.0,WeatherDisplay:10.37,2013-01-23 04:38:00,
2013-01-22 18:43:00,67.6,59.4,30.02,ENE,73,9.2,9.2,75,0.00,,,0.00,0.0,WeatherDisplay:10.37,2013-01-23 04:43:00,
2013-01-22 18:48:00,67.5,59.3,30.02,North,355,10.4,10.4,75,0.00,,,0.00,0.0,WeatherDisplay:10.37,2013-01-23 04:48:00,
2013-01-22 18:53:00,67.4,59.6,30.02,North,5,11.5,11.5,76,0.00,,,0.00,0.0,WeatherDisplay:10.37,2013-01-23 04:53:00,
2013-01-22 18:58:00,67.4,59.6,30.01,NE,50,8.1,8.1,76,0.00,,,0.00,0.0,WeatherDisplay:10.37,2013-01-23 04:58:00,
2013-01-22 19:00:00,67.4,59.6,30.01,NNE,29,8.1,8.1,76,0.00,,,0.00,0.0,WeatherDisplay:10.37,2013-01-23 05:00:00,
2013-01-22 19:03:00,67.3,59.5,30.01,NE,47,9.2,9.2,76,0.00,,,0.00,0.0,WeatherDisplay:10.37,2013-01-23 05:03:00,
2013-01-22 19:08:00,67.2,59.4,30.01,NNE,21,9.2,9.2,76,0.00,,,0.00,0.0,WeatherDisplay:10.37,2013-01-23 05:08:00,
2013-01-22 19:13:00,67.2,59.4,30.01,NNE,16,8.1,8.1,76,0.00,,,0.00,0.0,WeatherDisplay:10.37,2013-01-23 05:13:00,
2013-01-22 19:18:00,67.2,59.7,30.01,NE,51,11.5,11.5,77,0.00,,,0.00,0.0,WeatherDisplay:10.37,2013-01-23 05:18:00,
2013-01-22 19:23:00,67.2,59.7,30.01,NNE,24,11.5,11.5,77,0.00,,,0.00,0.0,WeatherDisplay:10.37,2013-01-23 05:23:00,
2013-01-22 19:28:00,67.2,59.7,30.02,East,82,9.2,9.2,77,0.00,,,0.00,0.0,WeatherDisplay:10.37,2013-01-23 05:28:00,
2013-01-22 19:33:00,67.1,59.6,30.02,ENE,67,13.8,13.8,77,0.00,,,0.00,0.0,WeatherDisplay:10.37,2013-01-23 05:33:00,
2013-01-22 19:38:00,67.0,59.5,30.02,NNE,19,11.5,11.5,77,0.00,,,0.00,0.0,WeatherDisplay:10.37,2013-01-23 05:38:00,
2013-01-22 19:43:00,67.0,59.9,30.02,NNE,24,9.2,9.2,78,0.00,,,0.00,0.0,WeatherDisplay:10.37,2013-01-23 05:43:00,
2013-01-22 19:48:00,66.9,59.8,30.02,NE,53,11.5,11.5,78,0.00,,,0.00,0.0,WeatherDisplay:10.37,2013-01-23 05:48:00,
2013-01-22 19:53:00,66.9,59.8,30.02,NE,37,11.5,11.5,78,0.00,,,0.00,0.0,WeatherDisplay:10.37,2013-01-23 05:53:00,
2013-01-22 19:58:00,66.8,59.7,30.03,ENE,59,12.7,12.7,78,0.00,,,0.00,0.0,WeatherDisplay:10.37,2013-01-23 05:58:00,
2013-01-22 20:03:00,66.8,59.7,30.03,NE,34,11.5,11.5,78,0.00,,,0.00,0.0,WeatherDisplay:10.37,2013-01-23 06:03:00,
2013-01-22 20:08:00,66.7,59.6,30.02,NE,42,11.5,11.5,78,0.00,,,0.00,0.0,WeatherDisplay:10.37,2013-01-23 06:08:00,
2013-01-22 20:13:00,66.7,59.6,30.02,East,93,11.5,11.5,78,0.00,,,0.00,0.0,WeatherDisplay:10.37,2013-01-23 06:13:00,
2013-01-22 20:18:00,66.6,59.5,30.02,NE,50,8.1,8.1,78,0.00,,,0.00,0.0,WeatherDisplay:10.37,2013-01-23 06:18:00,
2013-01-22 20:23:00,66.6,59.9,30.03,ENE,68,10.4,10.4,79,0.00,,,0.00,0.0,WeatherDisplay:10.37,2013-01-23 06:23:00,
2013-01-22 20:28:00,66.6,59.9,30.03,NE,52,11.5,11.5,79,0.00,,,0.00,0.0,WeatherDisplay:10.37,2013-01-23 06:28:00,
2013-01-22 20:33:00,66.5,59.8,30.02,NE,53,9.2,9.2,79,0.00,,,0.00,0.0,WeatherDisplay:10.37,2013-01-23 06:33:00,
2013-01-22 20:38:00,66.5,59.8,30.03,ENE,72,9.2,9.2,79,0.00,,,0.00,0.0,WeatherDisplay:10.37,2013-01-23 06:38:00,
2013-01-22 20:43:00,66.5,60.1,30.03,ENE,69,8.1,8.1,80,0.00,,,0.00,0.0,WeatherDisplay:10.37,2013-01-23 06:43:00,
2013-01-22 20:48:00,66.4,60.0,30.03,NE,37,8.1,8.1,80,0.00,,,0.00,0.0,WeatherDisplay:10.37,2013-01-23 06:48:00,
2013-01-22 20:53:00,66.3,59.9,30.03,NE,52,9.2,9.2,80,0.00,,,0.00,0.0,WeatherDisplay:10.37,2013-01-23 06:53:00,
2013-01-22 20:58:00,66.2,59.5,30.03,NE,42,9.2,9.2,79,0.00,,,0.00,0.0,WeatherDisplay:10.37,2013-01-23 06:58:00,
2013-01-22 21:03:00,66.1,59.4,30.03,ENE,63,9.0,9.0,79,0.00,,,0.00,0.0,WeatherDisplay:10.37,2013-01-23 07:03:00,
2013-01-22 21:08:00,66.0,59.3,30.03,NE,42,8.1,8.1,79,0.00,,,0.00,0.0,WeatherDisplay:10.37,2013-01-23 07:08:00,
2013-01-22 21:13:00,65.9,59.2,30.03,ENE,74,10.4,10.4,79,0.00,,,0.00,0.0,WeatherDisplay:10.37,2013-01-23 07:13:00,
2013-01-22 21:18:00,65.9,59.2,30.03,NNE,16,11.5,11.5,79,0.00,,,0.00,0.0,WeatherDisplay:10.37,2013-01-23 07:18:00,
2013-01-22 21:23:00,65.9,59.2,30.03,NNE,29,9.2,9.2,79,0.00,,,0.00,0.0,WeatherDisplay:10.37,2013-01-23 07:23:00,
2013-01-22 21:28:00,66.0,59.3,30.03,ENE,61,4.6,4.6,79,0.00,,,0.00,0.0,WeatherDisplay:10.37,2013-01-23 07:28:00,
2013-01-22 21:33:00,66.0,59.3,30.03,NE,51,9.2,9.2,79,0.00,,,0.00,0.0,WeatherDisplay:10.37,2013-01-23 07:33:00,
2013-01-22 21:38:00,66.1,59.4,30.03,NE,53,10.4,10.4,79,0.00,,,0.00,0.0,WeatherDisplay:10.37,2013-01-23 07:38:00,
2013-01-22 21:43:00,66.1,59.4,30.03,NE,43,10.4,10.4,79,0.00,,,0.00,0.0,WeatherDisplay:10.37,2013-01-23 07:43:00,
2013-01-22 21:48:00,66.2,59.5,30.03,NNE,31,8.1,8.1,79,0.00,,,0.00,0.0,WeatherDisplay:10.37,2013-01-23 07:48:00,
2013-01-22 21:53:00,66.2,59.1,30.03,ENE,58,11.5,11.5,78,0.00,,,0.00,0.0,WeatherDisplay:10.37,2013-01-23 07:53:00,
2013-01-22 21:58:00,66.1,59.0,30.03,East,82,3.5,3.5,78,0.00,,,0.00,0.0,WeatherDisplay:10.37,2013-01-23 07:58:00,
2013-01-22 22:03:00,66.1,59.0,30.03,East,79,8.1,8.1,78,0.00,,,0.00,0.0,WeatherDisplay:10.37,2013-01-23 08:03:00,
2013-01-22 22:08:00,66.1,59.0,30.03,ENE,69,8.1,8.1,78,0.00,,,0.00,0.0,WeatherDisplay:10.37,2013-01-23 08:08:00,
2013-01-22 22:13:00,66.2,59.1,30.03,NNE,19,8.1,8.1,78,0.00,,,0.00,0.0,WeatherDisplay:10.37,2013-01-23 08:13:00,
2013-01-22 22:18:00,66.3,59.2,30.03,East,86,8.1,8.1,78,0.00,,,0.00,0.0,WeatherDisplay:10.37,2013-01-23 08:18:00,
2013-01-22 22:23:00,66.5,59.4,30.04,ENE,61,8.0,8.0,78,0.00,,,0.00,0.0,WeatherDisplay:10.37,2013-01-23 08:23:00,
2013-01-22 22:28:00,66.5,59.4,30.04,ENE,59,8.1,8.1,78,0.00,,,0.00,0.0,WeatherDisplay:10.37,2013-01-23 08:28:00,
2013-01-22 22:33:00,66.6,59.5,30.04,ENE,57,9.2,9.2,78,0.00,,,0.00,0.0,WeatherDisplay:10.37,2013-01-23 08:33:00,
2013-01-22 22:38:00,66.7,59.6,30.03,North,351,8.1,8.1,78,0.00,,,0.00,0.0,WeatherDisplay:10.37,2013-01-23 08:38:00,
2013-01-22 22:43:00,66.6,59.5,30.03,NE,54,3.5,3.5,78,0.00,,,0.00,0.0,WeatherDisplay:10.37,2013-01-23 08:43:00,
2013-01-22 22:48:00,66.6,59.5,30.03,ENE,72,6.9,6.9,78,0.00,,,0.00,0.0,WeatherDisplay:10.37,2013-01-23 08:48:00,
2013-01-22 22:53:00,66.7,60.0,30.03,NNE,30,9.2,9.2,79,0.00,,,0.00,0.0,WeatherDisplay:10.37,2013-01-23 08:53:00,
2013-01-22 22:58:00,66.7,60.0,30.03,ENE,59,4.6,4.6,79,0.00,,,0.00,0.0,WeatherDisplay:10.37,2013-01-23 08:58:00,
2013-01-22 23:03:00,66.7,60.0,30.03,NE,36,8.1,8.1,79,0.00,,,0.00,0.0,WeatherDisplay:10.37,2013-01-23 09:03:00,
2013-01-22 23:08:00,66.7,60.0,30.02,NNW,346,8.1,8.1,79,0.00,,,0.00,0.0,WeatherDisplay:10.37,2013-01-23 09:08:00,
2013-01-22 23:13:00,66.7,60.0,30.02,NE,47,8.1,8.1,79,0.00,,,0.00,0.0,WeatherDisplay:10.37,2013-01-23 09:13:00,
2013-01-22 23:18:00,66.7,60.0,30.02,NE,53,9.2,9.2,79,0.00,,,0.00,0.0,WeatherDisplay:10.37,2013-01-23 09:18:00,
2013-01-22 23:23:00,66.7,60.0,30.02,ENE,65,9.2,9.2,79,0.00,,,0.00,0.0,WeatherDisplay:10.37,2013-01-23 09:23:00,
2013-01-22 23:28:00,66.7,60.3,30.02,NE,39,9.2,9.2,80,0.00,,,0.00,0.0,WeatherDisplay:10.37,2013-01-23 09:28:00,
2013-01-22 23:33:00,66.6,60.2,30.01,ENE,63,6.9,6.9,80,0.00,,,0.00,0.0,WeatherDisplay:10.37,2013-01-23 09:33:00,
2013-01-22 23:38:00,66.5,60.1,30.02,ENE,74,8.1,8.1,80,0.00,,,0.00,0.0,WeatherDisplay:10.37,2013-01-23 09:38:00,
2013-01-22 23:43:00,66.4,60.0,30.01,ENE,67,5.8,5.8,80,0.00,,,0.00,0.0,WeatherDisplay:10.37,2013-01-23 09:43:00,
2013-01-22 23:48:00,66.3,59.9,30.01,NE,56,6.9,6.9,80,0.00,,,0.00,0.0,WeatherDisplay:10.37,2013-01-23 09:48:00,
2013-01-22 23:53:00,65.9,59.2,30.01,NE,49,9.2,9.2,79,0.00,,,0.00,0.0,WeatherDisplay:10.37,2013-01-23 09:53:00,
2013-01-22 23:58:00,65.7,58.7,30.01,ENE,61,6.9,6.9,78,0.00,,,0.00,0.0,WeatherDisplay:10.37,2013-01-23 09:58:00,